Simultaneous Nadir Overpasses (SNOs) Predictions

Prediction of SNOs between METOP-A and TERRA Satellite Orbit:

Table of predicted SNOs for the next 14.0 days since TLE Epoch: 4/27/2013
Index Date (METOP-A) Time (METOP-A) Lat,Lon (METOP-A) SZA (METOP-A ) Date (TERRA) Time (TERRA) Lat,Lon (TERRA) SZA (TERRA ) Distance(km) Time Diff (sec)
1 04/28/2013 20:53:50 -81.29, 93.57 110.19 04/28/2013 20:53:57 -81.30, 93.74 110.17 3.02 7
2 04/28/2013 21:44:30 81.30, -98.66 69.85 04/28/2013 21:43:23 81.31, -98.50 69.85 2.92 67
3 05/01/2013 15:37:34 81.29, -7.81 68.92 05/01/2013 15:38:44 81.29, -7.72 68.96 1.60 70
4 05/01/2013 16:28:13 -81.29, 160.10 111.02 05/01/2013 16:28:10 -81.30, 160.22 111.01 2.15 3
5 05/04/2013 11:11:57 81.29, 58.68 68.12 05/04/2013 11:12:57 81.28, 58.59 68.13 1.77 60
6 05/04/2013 12:02:36 -81.30,-133.40 111.82 05/04/2013 12:02:23 -81.30,-133.45 111.84 0.81 13
7 05/07/2013 06:46:19 81.29, 125.13 67.34 05/07/2013 06:47:08 81.28, 125.13 67.36 0.45 49
8 05/07/2013 07:36:58 -81.30, -66.94 112.60 05/07/2013 07:36:34 -81.30, -66.88 112.60 1.30 24
9 05/10/2013 02:20:42 81.29,-168.46 66.60 05/10/2013 02:21:20 81.28,-168.46 66.61 0.75 38




NCC Satellite Simultaneous Nadir Overpasses (SNOs) Prediction Service
